Regional Weather Roundup
Issued by NWS

Home | Current Version | Previous Version | Graphics & Text | Print | Product List | Glossary On
Versions: 1 2 3 4 5 6 7 8 9 10 11 12 13 14 15 16 17 18 19 20 21 22 23 24 25 26 27 28 29 30 31 32 33 34 35 36 37 38 39 40 41 42 43 44 45 46 47 48 49 50
000
ASUS43 KOAX 292202
RWRNE

WEATHER ROUNDUP FOR NEBRASKA
NATIONAL WEATHER SERVICE OMAHA NE
500 PM CDT WED MAR 29 2017

NOTES: SATELLITE DATA IS BEING USED TO AUGMENT CLOUD COVER ABOVE
       12000 FEET.
       "FAIR" INDICATES FEW OR NO CLOUDS BELOW 12,000 FEET WITH NO
       SIGNIFICANT WEATHER AND/OR OBSTRUCTIONS TO VISIBILITY.

  * THESE STATIONS DO NOT REPORT WEATHER SUCH AS RAIN...SNOW OR FOG.

NEZ001>004-019>022-054>056-292300-
NEBRASKA PANHANDLE

CITY           SKY/WX    TMP DP  RH WIND       PRES   REMARKS
SCOTTSBLUFF    MOSUNNY   56  37  49 N12       29.96F
ALLIANCE       CLOUDY    51  38  60 N15       29.97F
CHADRON        CLOUDY    56  39  53 N9        29.97F
KIMBALL        CLOUDY    53  39  59 N15G22    29.97F
SIDNEY         PTSUNNY   51  37  58 N18G24    29.97F
$$

NEZ057>060-069>072-079>082-292300-
SOUTHWEST NEBRASKA

CITY           SKY/WX    TMP DP  RH WIND       PRES   REMARKS
NORTH PLATTE   CLOUDY    47  39  74 NE21G29   29.94R
IMPERIAL       CLOUDY    46  38  73 NE16      29.95R
LEXINGTON      LGT RAIN  43  40  88 N17G25    29.90S
MCCOOK         LGT RAIN  45  42  89 N23       29.90S
OGALLALA       CLOUDY    51  38  61 N14G22    29.95F
$$

NEZ005>010-023>029-035>040-094-292300-
NORTH CENTRAL NEBRASKA

CITY           SKY/WX    TMP DP  RH WIND       PRES   REMARKS
VALENTINE      CLOUDY    49  40  71 E12       29.98F
AINSWORTH      CLOUDY    47  39  73 NE17G24   29.98S
BROKEN BOW     LGT RAIN  43  40  89 N17G29    29.92S
O`NEILL        CLOUDY    44  40  86 NE18G24   29.98F
ORD            LGT RAIN  43  39  86 NE16G26   29.92S
$$

NEZ041-046>049-061>064-073>077-083>087-292300-
SOUTH CENTRAL NEBRASKA

CITY           SKY/WX    TMP DP  RH WIND       PRES   REMARKS
GRAND ISLAND   LGT RAIN  43  42  97 NE22G28   29.86F
AURORA         DRIZZLE   43  43  98 NE26      29.84F
HASTINGS       LGT RAIN  43  41  93 NE23G31   29.83F FOG
HEBRON         LGT RAIN  43  41  93 NE22      29.78S
HOLDREGE       RAIN      39  37  91 N26G35    29.87S WCI  28
KEARNEY *      CLOUDY    41  36  81 N24       29.88S
YORK           LGT RAIN  41  41 100 NE25G32   29.84S
$$

NEZ011>018-030>034-042>045-292300-
NORTHEAST NEBRASKA

CITY           SKY/WX    TMP DP  RH WIND       PRES   REMARKS
NORFOLK        LGT RAIN  42  38  85 NE17G26   29.92R
ALBION         RAIN      44  40  87 NE18      29.91S
BLAIR          DRIZZLE   42  41  95 NE17G25   29.86F
FREMONT        LGT RAIN  43  42  96 NE13G22   29.88F
TEKAMAH        LGT RAIN  44  40  85 NE23G30   29.90F
WAYNE          LGT RAIN  42  42  99 NE22G28   29.94S
$$

NEZ050>053-065>068-078-088>093-292300-
SOUTHEAST NEBRASKA

CITY           SKY/WX    TMP DP  RH WIND       PRES   REMARKS
LINCOLN        LGT RAIN  43  41  93 NE20G31   29.83F FOG
OMAHA EPPLEY   LGT RAIN  44  39  82 NE22G28   29.87F FOG
BEATRICE       LGT RAIN  42  42  99 NE23G29   29.76F
FALLS CITY     LGT RAIN  47  47 100 NE12      29.72F
NEBRASKA CITY  LGT RAIN  42  42 100 NE20      29.79S
PLATTSMOUTH    DRIZZLE   42  40  90 N18G26    29.82F
$$

NEZ044-045-051>053-067-292300-
OMAHA AREA

CITY           SKY/WX    TMP DP  RH WIND       PRES   REMARKS
OMAHA EPPLEY   LGT RAIN  44  39  82 NE22G28   29.87F FOG
BLAIR          DRIZZLE   42  41  95 NE17G25   29.86F
FREMONT        LGT RAIN  43  42  96 NE13G22   29.88F
MILLARD        DRIZZLE   45  42  90 NE10G21   29.85F
OFFUTT AFB     LGT RAIN  43  41  92 NE20G30   29.83F FOG
PLATTSMOUTH    DRIZZLE   42  40  90 N18G26    29.82F
WAHOO          DRIZZLE   43  41  92 NE21G32   29.85F
$$




USA.gov is the U.S. government's official web portal to all federal, state and local government web resources and services.